APSTAR-6C

Last updated on Sun Apr 12 2026 00:02:55 GMT+0000 (Coordinated Universal Time)

1 43450U 18041A 26101.80157197 -.00000316 00000+0 00000+0 0 9997 2 43450 0.0535 309.6917 0002000 45.0097 267.8648 1.00274591 29149
UTC large
Height (km)
Speed (km/s)
/
Latitude / Longitude
Inclination (degrees)
Orbital Period (minutes)
Azimuth
Elevation
Range (km)
Doppler Factor

Next 0 passes for location: London (51.5072 / 0.1276)

Sorry there are no passes over London.
APSTAR-6C